Regional Weather Roundup
Issued by NWS

Home | Current Version | Previous Version | Text Only | Print | Product List | Glossary On
Versions: 1 2 3 4 5 6 7 8 9 10 11 12 13 14 15 16 17 18 19 20 21 22 23 24 25 26 27 28 29 30 31 32 33 34 35 36 37 38 39 40 41 42 43 44 45 46 47 48 49 50
000
ASUS46 KLOX 302013
RWRCA

SOUTHERN CALIFORNIA WEATHER ROUNDUP
NATIONAL WEATHER SERVICE OXNARD CALIFORNIA
100 PM PDT SAT APR 30 2016

NOTE: "FAIR" INDICATES FEW OR NO CLOUDS BELOW 12,000 FEET WITH NO
SIGNIFICANT WEATHER AND/OR OBSTRUCTIONS TO VISIBILITY.

  -  STATIONS PRECEEDED BY AN ASTERISK (*) ARE NOT NWS OR FAA
     STATIONS AND ARE NOT SUBJECT TO NWS AND FAA QUALITY CONTROL.

CAZ041-042-087-302100-
LA AND ORANGE COUNTY COASTAL AREAS


CITY           SKY/WX    TMP DP  RH WIND       PRES   REMARKS
L.A. DOWNTOWN  SUNNY     67  50  54 VRB3      29.81S
L.A. AIRPORT   MOSUNNY   64  50  60 W15       29.83S
LONG BEACH     SUNNY     66  50  56 SW9       29.82F

CITY           SKY/WX    TMP DP  RH WIND       PRES   REMARKS
AVALON           N/A     63 N/A N/A MISG        N/A
FULLERTON      PTSUNNY   69  49  48 W9        29.80F
*GETTY CENTER    N/A    N/A N/A N/A SW15        N/A
HAWTHORNE      SUNNY     65  48  54 W15       29.82F
*LOS ALAMITOS  FAIR      67  51  55 S14       29.81F
*REDONDO BEACH   N/A     65  51  60 SW3       29.83S
SANTA ANA      MOSUNNY   65  50  58 W10       29.82F
STA MONICA APT SUNNY     64  50  60 W9G18     29.83S
*STA MON PIER    N/A     57  52  85 W12       29.77F
TORRANCE       MOSUNNY   70  52  52 SW12      29.83F
*UCLA            N/A     61  46  59 SW13      29.79S

$$

CAZ547-548-048-302100-
LA COUNTY VALLEYS AND INLAND EMPIRE


CITY           SKY/WX    TMP DP  RH WIND       PRES   REMARKS
BURBANK        MOSUNNY   66  47  50 S9G16     29.79F
VAN NUYS       SUNNY     69  47  45 SE12      29.79F

CITY           SKY/WX    TMP DP  RH WIND       PRES   REMARKS
CORONA AIRPORT PTCLDY    68  49  50 VRB5      29.79F
*CHATSWORTH      N/A     69  49  48 W5        29.79F
CHINO          PTSUNNY   70  46  42 W5        29.80F
*CLAREMONT       N/A     61  52  71 SW5         N/A
MARCH AFB      MOSUNNY   62  49  63 W7        29.79F
*NORTHRIDGE      N/A     70  46  43 SE5G12      N/A
ONTARIO        PTSUNNY   64  46  52 W9        29.80F
*PASADENA        N/A     66  52  59 E5          N/A
POMONA         PTSUNNY   64  48  55 SW8       29.83F
RIVERSIDE      PTSUNNY   64  48  56 W7        29.80F
SAN BERNARDINO CLOUDY    64  50  59 SW5       29.80F
*SAN GABRIEL     N/A     67  50  56 W10       29.86F
*WHITEMAN AP   MOSUNNY   66  46  48 SE7G18    29.83S
*WOODLAND HILL   N/A     68  46  45 SE8         N/A

$$

CAZ054-055-302100-
LA AND SAN BERNARDINO COUNTY MOUNTAINS


CITY           SKY/WX    TMP DP  RH WIND       PRES   REMARKS
*ACTON           N/A     66  36  33 NE7G18      N/A
*BIG BEAR AIRP RAIN      34  32  93 E3        29.84F
*BIG PINES       N/A     43  32  65 SW3         N/A
*CHILAO          N/A     51  30  44 N13G35      N/A
SANDBERG       SUNNY     58  36  43 N16G35    29.88F
*WARM SPRINGS    N/A     63  46  54 CALM        N/A

$$

CAZ028-029-059-060-099-302100-
ANTELOPE VALLEY AND SURROUNDING AREAS


CITY           SKY/WX    TMP DP  RH WIND       PRES   REMARKS
LANCASTER      PTSUNNY   69  37  30 W13G22    29.80F
PALMDALE       PTSUNNY   65  36  34 W14G21    29.81F

CITY           SKY/WX    TMP DP  RH WIND       PRES   REMARKS
29 PALMS       MOSUNNY   65  38  36 NW25G38   29.81F
BARSTOW/DAGGET CLOUDY    59  44  57 SW8       29.79F
BISHOP         PTSUNNY   62  31  31 N23G33    29.92F
CHINA LAKE     MOSUNNY   68  31  25 N25G35    29.77F
EDWARDS AFB    PTSUNNY   71  30  21 N28G38    29.75F
MOJAVE         MOSUNNY   64  39  39 W17G25    29.81F
NEEDLES        CLOUDY    64  51  62 NE12      29.72S
VICTORVILLE    PTSUNNY   61  34  36 N12G17    29.82F

$$

CAZ039-040-302100-
VENTURA AND SANTA BARBARA COUNTY COAST


CITY           SKY/WX    TMP DP  RH WIND       PRES   REMARKS
CAMARILLO      SUNNY     69  47  45 W13       29.81F
NWS OXNARD       N/A     68  49  50 W12       29.81F
OXNARD AIRPORT SUNNY     64  50  60 W14       29.83F
*POINT MUGU    MOSUNNY   66  49  54 W15       29.83F
SBA APT/GOLETA SUNNY     64  49  57 W8        29.82F
*SANTA BARBARA   N/A     68  45  44 CALM      29.90S
*VENTURA         N/A     66  50  56 SW6       29.80F

$$

CAZ044-045-302100-
VENTURA COUNTY VALLEYS


CITY           SKY/WX    TMP DP  RH WIND       PRES   REMARKS
*SIMI VALLEY     N/A     68  50  52 W10       29.75F
*WESTLAKE VILL   N/A     70  50  49 NE3       29.79F
*OJAI            N/A     71  52  51 W1        29.75F
*FILLMORE        N/A     74  53  48 W1        29.67F

$$

CAZ053-302100-
VENTURA COUNTY MOUNTAINS


CITY           SKY/WX    TMP DP  RH WIND       PRES   REMARKS
*LOCKWOOD VLY    N/A     59  30  33 S7          N/A
*ROSE VALLEY     N/A     64  50  59 MISG        N/A

$$

CAZ034-035-036-302100-
CENTRAL COAST AND SANTA YNEZ VALLEY


CITY           SKY/WX    TMP DP  RH WIND       PRES   REMARKS
SAN LUIS OBISP SUNNY     69  47  45 NW16      29.84S
SANTA MARIA    SUNNY     72  45  37 NW17      29.83F

CITY           SKY/WX    TMP DP  RH WIND       PRES   REMARKS
*CAL POLY SLO    N/A     66  50  55 W9G15       N/A
*LOMPOC        SUNNY     63  49  60 W20       29.85S
*PISMO BEACH     N/A     58  52  80 W10       29.86F
*SANTA YNEZ    FAIR      75  41  29 W17G23    29.79F

$$

CAZ037-038-051-302100-
SAN LUIS OBISPO COUNTY INTERIOR AND CUYAMA VALLEY


CITY           SKY/WX    TMP DP  RH WIND       PRES   REMARKS
*CUYAMA          N/A     63  35  36 NE6       29.80F
PASO ROBLES    SUNNY     72  38  29 VRB3      29.82F

$$

CAZ032-033-061-302100-
SOUTHERN DESERTS


CITY           SKY/WX    TMP DP  RH WIND       PRES   REMARKS
BLYTHE         CLOUDY    74  46  36 N16G23    29.67F
IMPERIAL       SUNNY     78  40  25 W20G25    29.66F
PALM SPRINGS   MOSUNNY   76  43  30 NW25G33   29.70F
THERMAL        SUNNY     80  39  23 NW17G26   29.65F

$$

ELSEWHERE ACROSS THE WESTERN UNITED STATES AND MEXICO


CITY           SKY/WX    TMP DP  RH WIND       PRES   REMARKS
DENVER, CO     LGT SNOW  34  32  92 N22       30.00R VSB 3/4 WCI  22
GRAND CANYON,  CLOUDY    46  39  76 E3        29.86F
HONOLULU, HI   PTSUNNY   81  64  57 E10       30.11R
KAHULUI, MAUI  MOSUNNY   86  59  39 E16G22    30.08S
LAKE TAHOE, CA CLOUDY    41  32  70 N14G22    30.06S WCI  33
LAS VEGAS, NV  PTSUNNY   58  57  97 VRB5      29.74F
MAMMOTH LAKES, PTSUNNY   45  31  58 N16       30.03F
MEXICO CITY, M CLOUDY    81  19  10 W15       30.15F
PHOENIX, AZ    PTSUNNY   80  29  15 S17G26    29.60F
PORTLAND, OR   MOSUNNY   58  43  57 CALM      30.34F
RENO, NV       PTSUNNY   53  32  44 NE10G20   30.08S
SALT LAKE CITY PTSUNNY   59  31  34 N18       29.91F
SAN DIEGO, CA  MOSUNNY   63  46  54 S8        29.84F
SAN FRANCISCO, SUNNY     69  39  33 W21       29.89F
SAN JOSE, CA   MOSUNNY   74  42  31 W12G24    29.86F
SEATTLE, WA    MOSUNNY   61  45  55 NW6       30.36F
TIJUANA, MEX   PTSUNNY   61  43  51 CALM      29.85F

$$

STATION/POSITION TIME  TEMP    WIND        PRES    VSBY  WAVE
                       AIR SEA DIR/SP/G                  HT/PER
                 (UTC) (F)     (DEG/KT/KT) (MB)    (MI)  (FT/S)
POINT ARGUELLO B NOT AVBL
WEST SANTA BARBA 1950   53 52  300/ 19/ 23 1009.9F        10/11
POINT CONCEPTION NOT AVBL
EAST SANTA BARBA 1900   55 56  260/ 16/ 21 1010.6F
SANTA MONICA BAY 1950   57 60  280/  4/  6 1010.7F         4/ 8


USA.gov is the U.S. government's official web portal to all federal, state and local government web resources and services.